Regional Weather Roundup
Issued by NWS

Home | Current Version | Previous Version | Graphics & Text | Print | Product List | Glossary On
Versions: 1 2 3 4 5 6 7 8 9 10 11 12 13 14 15 16 17 18 19 20 21 22 23 24 25 26 27 28 29 30 31 32 33 34 35 36 37 38 39 40 41 42 43 44 45 46 47 48 49 50
000
ASUS43 KDMX 261307
RWRIA

WEATHER ROUNDUP FOR IOWA
NATIONAL WEATHER SERVICE DES MOINES IA
800 AM CDT TUE AUG 26 2014

NOTE: "FAIR" INDICATES FEW OR NO CLOUDS BELOW 12,000 FEET WITH NO
SIGNIFICANT WEATHER AND/OR OBSTRUCTIONS TO VISIBILITY.

* - THESE STATIONS ARE NOT NWS STATIONS...THUS NOT UNDER NWS
QUALITY CONTROL.  THEY ALSO DO NOT REPORT WEATHER SUCH
AS PRECIPITATION OR FOG.

IAZ001>003-012>014-020>022-031>034-043>046-261400-
   NORTHWEST IOWA

CITY           SKY/WX    TMP DP  RH WIND       PRES   REMARKS
CARROLL *      SUNNY     63  61  94 NE10G21   30.10F
CHEROKEE *     CLOUDY    59  57  94 NE8       30.18
DENISON *      SUNNY     63  63 100 NE12      30.09F
LE MARS *      SUNNY     59  55  88 NE10      30.19F
ORANGE CITY *  SUNNY     61  54  77 E7        30.21S
SHELDON *      SUNNY     54  54 100 NE3       30.21S
SIOUX CITY     PTSUNNY   63  56  78 NE10      30.16F
SPENCER        CLOUDY    57  52  83 NE9       30.22F
STORM LAKE *   MOSUNNY   61  61 100 NE13G20   30.17F
$$

IAZ055>058-069>071-079>083-090>094-261400-
   SOUTHWEST IOWA

CITY           SKY/WX    TMP DP  RH WIND       PRES   REMARKS
ATLANTIC *     SUNNY     66  64  94 CALM      30.06S
AUDUBON *      MOSUNNY   64  63  94 N12G17    30.10R
CLARINDA *     PTSUNNY   68  66  94 E6        30.12R
COUNCIL BLFS * PTSUNNY   64  64 100 CALM      30.09R
CRESTON *      SUNNY     64  63  94 E13       30.12F
HARLAN  *      SUNNY     64  64 100 NE10G18   30.10R
LAMONI         CLOUDY    67  63  87 NE12      30.12F
RED OAK *      PTSUNNY   68  66  94 S7        30.10R FOG
SHENANDOAH *   RAIN      68  66  94 VRB7G15   30.09R
$$

IAZ047>049-059>061-072>074-084-261400-
   CENTRAL IOWA

CITY           SKY/WX    TMP DP  RH WIND       PRES   REMARKS
AMES           CLOUDY    64  62  93 NE14      30.11F
ANKENY *       SUNNY     64  64 100 NE10      30.11F
CHARITON *     SUNNY     66  64  94 NE8       30.13F
DES MOINES     CLOUDY    67  64  90 NE14      30.10F
GRINNELL*      LGT RAIN  63  61  94 N7        30.18F
KNOXVILLE *    SUNNY     66  64  94 NE7       30.13F
MARSHALLTOWN   CLOUDY    64  61  90 NE6       30.19F
PELLA *        CLOUDY    66  64  94 N6        30.15F
PERRY *        PTSUNNY   63  63 100 E10       30.12R
$$

IAZ004>006-015-016-023>025-035-036-261400-
   NORTH CENTRAL IOWA

CITY           SKY/WX    TMP DP  RH WIND       PRES   REMARKS
ALGONA *       PTSUNNY   59  55  88 N9        30.22F
CLARION *      SUNNY     61  61 100 N9        30.18F
ESTHERVILLE    CLOUDY    56  52  86 NE5       30.24S
FORT DODGE *   CLOUDY    61  57  88 N9        30.17F
MASON CITY     CLOUDY    61  59  93 NW5       30.25R
FOREST CITY *  MOSUNNY   61  59  94 NW5       30.24F
IOWA FALLS *   LGT RAIN  63  61  94 N8        30.19F
$$

IAZ007>011-017>019-026>030-037>042-050>054-066-261400-
   NORTHEAST IOWA

CITY           SKY/WX    TMP DP  RH WIND       PRES   REMARKS
CEDAR RAPIDS   CLOUDY    65  63  93 N10       30.15S THUNDER
CHARLES CITY * PTSUNNY   63  61  94 W6        30.24R
CLINTON *      PTSUNNY   73  72  94 NW7       30.11R
DECORAH *      PTSUNNY   63  61  94 CALM      30.20R
DUBUQUE        TSTM      63  62  97 N14       30.16R FOG
MONTICELLO *   LGT RAIN  64  63  94 CALM      30.17R
OELWEIN *      LGT RAIN  63  63 100 NW7G14    30.22R
WATERLOO       LGT RAIN  63  62  97 N12       30.17F
$$

IAZ064-065-067-068-078-261400-
   EAST CENTRAL IOWA

CITY           SKY/WX    TMP DP  RH WIND       PRES   REMARKS
DAVENPORT      PTSUNNY   76  73  91 NW17      30.11R
IOWA CITY      CLOUDY    67  63  87 N14       30.14R
MT. PLEASANT * CLOUDY    72  66  83 N23G29    30.11R
MUSCATINE *    CLOUDY    72  64  78 N17G33    30.14R
QUAD CITIES    MOSUNNY   78  74  87 W3        30.07R HX  81
$$

IAZ062-063-075>077-085>089-095>099-261400-
   SOUTHEAST IOWA

CITY           SKY/WX    TMP DP  RH WIND       PRES   REMARKS
BURLINGTON     PTSUNNY   78  75  90 NW9       30.09R HX  81
FAIRFIELD *    CLOUDY    70  63  78 NW9G17    30.17R
FORT MADISON * MOSUNNY   81  75  83 NW5       30.08R HX  86
KEOKUK *       MOSUNNY   79  75  89 W6        30.07R HX  82
OSKALOOSA *    LGT RAIN  68  64  88 N7        30.16S
CENTERVILLE *  MOSUNNY   68  64  88 NE8       30.15F
OTTUMWA        CLOUDY    69  63  81 N9        30.14R
WASHINGTON *   CLOUDY    70  64  83 N16       30.13S
$$

ABBREVIATIONS USED IN REMARKS
   TC - TEMPERATURES IN CELSIUS
  WCI - WIND CHILL INDEX
   HX - HEAT INDEX
  VSB - VISIBILITY
$$



USA.gov is the U.S. government's official web portal to all federal, state and local government web resources and services.